COSMOS 2251 DEB, 34481

Orbit data source: Space-Track

COSMOS 2251 DEB, 34481 is space debris in LEO originally from a launch on Wed, 16 Jun 1993 UTC launched from the Plesetsk Missile And Space Complex (PKMTR). The debris from Iridium 33, an American commercial communications satellite, has been tracked extensively since its accidental collision with the defunct Russian satellite Cosmos 2251 in 2009. This event, occurring at high speed in low Earth orbit (LEO), generated thousands of pieces of space debris, significantly increasing the risk of further collisions. The Iridium 33 debris cloud has impacted space traffic management and orbital debris mitigation strategies, making it a subject of ongoing study in space situational awareness.

Loading next visibility...
Identifier
34481, 1993-036UA
Orbit
LEO
Country
Flag of CISCIS
Related business
Manufacturer
Unknown
Mission
Spacecraft
Bus & Motor
Unknown
Mass
Unknown
Launch date (UTC)
1993-06-16 (33 years ago)
Launch vehicle
Unknown
Launch site
Plesetsk Missile And Space Complex (PKMTR)
Object type
Payload
Rocket body
Debris
Shape & HBR
Unknown shape, 0.1 m
Radar Cross Section
Medium (>0.1 m² and <1 m²)

Expand to show TLE details & history
Last TLE update: 7 hours ago

TLE from 7 hours ago
0 COSMOS 2251 DEB
1 34481U 93036UA  26235.96296616  .00000603  00000-0  22273-3 0  9992
2 34481  73.9794 307.3943 0068315  61.5506 112.6085 14.33239549910901
Epoch: 2026-08-23T23:06Z
TLE epoch observation values (Epoch: 2026-08-23T23:06:40.276Z)
Latitude
4.84055°
Longitude
167.08905°
Altitude
802.118 km
Speed
7.443 km/s
True Right ascension
08h 24m 02s
True Declination
4° 48' 43"
Sunlit
Object was in daylight at epoch
Visualization orbit readout
Latitude
Unknown
Longitude
Unknown
Altitude
Unknown
Speed
Unknown
Apparent Right ascension
Unknown
Apparent Declination
Unknown
Sunlit
N/A
Visualization observer readout
Local Sidereal Time
21:36:10
Azimuth
Unknown
Elevation
Unknown
Doppler factor
Unknown
Orbital elements
Apogee altitude
827.445 km
Perigee altitude
729.664 km
Semi-major axis
7,156.691 km
Eccentricity
0.00683
Inclination
73.9794°
RAAN
307.3943°
Arg. of periapsis
61.5506°
True anomaly
113.32879°
Mean anomaly
112.6085°
Eccentric anomaly
112.96888°
Mean motion
3.58488 °/min
Orbital period
100.42 mins
BSTAR
0.00022273

Documentation

Showing up to 5 results
|